Regional Weather Roundup
Issued by NWS

Home | Current Version | Previous Version | Graphics & Text | Print | Product List | Glossary On
Versions: 1 2 3 4 5 6 7 8 9 10 11 12 13 14 15 16 17 18 19 20 21 22 23 24 25 26 27 28 29 30 31 32 33 34 35 36 37 38 39 40 41 42 43 44 45 46 47 48 49 50
000
ASUS43 KMKX 250800
RWRWI

WISCONSIN REGIONAL WEATHER ROUNDUP
NATIONAL WEATHER SERVICE MILWAUKEE/SULLIVAN WI
300 AM CDT SAT APR 25 2015

NOTE: "FAIR" INDICATES FEW OR NO CLOUDS BELOW 12,000 FEET WITH NO
SIGNIFICANT WEATHER AND/OR OBSTRUCTIONS TO VISIBILITY.

WIZ001-002-006>008-014>016-023>028-250900-
NORTHWEST WISCONSIN

CITY           SKY/WX    TMP DP  RH WIND       PRES   REMARKS
SUPERIOR ARPT  CLOUDY    35  32  88 NE15      29.94S WCI  25
ASHLAND        CLOUDY    37  32  82 N8        29.94S WCI  31
HAYWARD        CLOUDY    43  32  65 E3        29.89R
SIREN          CLOUDY    44  30  59 E3        29.86F
CUMBERLAND     CLOUDY    41  32  70 SE10      29.85F
RICE LAKE      CLOUDY    43  33  68 E10G20    29.88S
CHETEK         CLOUDY    42  34  74 E13G20    29.87S
LADYSMITH      CLOUDY    42  32  68 E8        29.91R
EAU CLAIRE     NOT AVBL
MENOMONIE      CLOUDY    42  36  78 E10G17    29.86S
NEW RICHMOND   CLOUDY    42  35  75 E13G21    29.84R
OSCEOLA        CLOUDY    44  36  72 E18       29.87R
$$

WIZ003>005-009-010-017-018-250900-
NORTH CENTRAL WISCONSIN

CITY           SKY/WX    TMP DP  RH WIND       PRES   REMARKS
MANITOWISH WTR CLOUDY    39  29  68 SE3       29.91S
ARBOR VITAE    CLOUDY    39  28  64 SE8       29.91S WCI  34
WOODRUFF       CLOUDY    39  28  64 SE8       29.91S WCI  34
RHINELANDER    CLOUDY    37  22  54 E10       29.92F WCI  30
EAGLE RIVER    MOCLDY    36  25  62 SE8       29.92F WCI  30
LAND O LAKES   CLOUDY    38  29  71 CALM      29.93F
PHILLIPS       CLOUDY    37  27  68 E6        29.90S WCI  32
TOMAHAWK       CLOUDY    38  25  59 CALM      29.91F
MEDFORD        CLOUDY    38  28  67 E8        29.88F WCI  32
MERRILL        CLOUDY    38  23  54 E6        29.91F WCI  34
$$

WIZ029-030-035-036-043>047-250900-
CENTRAL WISCONSIN

CITY           SKY/WX    TMP DP  RH WIND       PRES   REMARKS
WAUSAU         CLOUDY    38  25  59 E10       29.89F WCI  31
MOSINEE        CLOUDY    36  28  75 E9        29.91F WCI  29
MARSHFIELD     CLOUDY    38  34  85 E10       29.88F WCI  31
STEVENS POINT  CLOUDY    35  30  83 E10       29.91S WCI  27
WAUPACA        CLOUDY    39  34  81 CALM      29.92F
WAUTOMA        NOT AVBL
WISC RAPIDS    CLOUDY    37  33  85 E8        29.90F WCI  31
CAMP DOUGLAS   NOT AVBL
$$

WIZ011>013-019>022-031-037>040-048>050-250900-
NORTHEAST WISCONSIN

CITY           SKY/WX    TMP DP  RH WIND       PRES   REMARKS
ANTIGO         CLOUDY    36  21  55 E9        29.92F WCI  29
SHAWANO        CLOUDY    41  26  55 E8        29.94F
OCONTO         CLOUDY    39  23  53 E5        29.95F
STURGEON BAY   CLOUDY    36  23  60 E10       29.98F WCI  28
GREEN BAY      CLOUDY    41  23  48 NE7       29.93F
MANITOWOC      NOT AVBL
APPLETON       CLOUDY    37  30  75 E7        29.92F WCI  32
CLINTONVILLE   CLOUDY    37  23  56 E7        29.93F WCI  32
OSHKOSH        CLOUDY    40  34  79 E13       29.90F WCI  32
$$

WIZ032>034-041-042-053>061-250900-
SOUTHWEST WISCONSIN

CITY           SKY/WX    TMP DP  RH WIND       PRES   REMARKS
LA CROSSE      CLOUDY    43  35  73 E7        29.84S
SPARTA         CLOUDY    40  36  85 E10       29.86F WCI  33
VIROQUA        CLOUDY    38  36  91 E16       29.81S WCI  29
BOSCOBEL       CLOUDY    42  35  76 NE7       29.83S
PRAIRIE DU CHI CLOUDY    42  33  70 E15       29.79S
PLATTEVILLE    CLOUDY    40  36  83 E17       29.78F WCI  32
$$

WIZ056-057-062-063-064-067-068-250900-
SOUTH CENTRAL WISCONSIN

CITY           SKY/WX    TMP DP  RH WIND       PRES   REMARKS
REEDSBURG      CLOUDY    38  34  87 E7        29.85F WCI  32
BARABOO/DELLS  CLOUDY    37  34  87 E12       29.86S WCI  30
LONE ROCK      NOT AVBL
MINERAL POINT  CLOUDY    41  36  81 E15G21    29.80S
MADISON        CLOUDY    40  32  73 MISG      29.86F
MIDDLETON      CLOUDY    41  33  71 E15G22    29.85F
WATERTOWN      CLOUDY    38  35  87 E13       29.86F WCI  30
MONROE         CLOUDY    37  36  93 E12G22    29.82R WCI  30
JANESVILLE     CLOUDY    41  34  75 E16G24    29.84S
$$

WIZ051-052-058>065-066-070>072-250900-
SOUTHEAST WISCONSIN

CITY           SKY/WX    TMP DP  RH WIND       PRES   REMARKS
MILWAUKEE      CLOUDY    39  33  79 E12       29.89F WCI  32
WAUKESHA       CLOUDY    36  32  87 E9        29.89F WCI  29
MILWAUKEE/TIMM CLOUDY    37  32  81 E7        29.91F WCI  32
RACINE         CLOUDY    40  35  83 E16G24    29.88F WCI  31
BURLINGTON     CLOUDY    38  33  82 E10G16    29.86F WCI  31
KENOSHA        CLOUDY    40  36  86 E16       29.87F WCI  31
FOND DU LAC    CLOUDY    39  33  79 E9        29.89F WCI  33
SHEBOYGAN      CLOUDY    39  34  82 E7        29.91F WCI  34
WEST BEND      CLOUDY    36  32  87 E9        29.90F WCI  29
JUNEAU         CLOUDY    38  33  82 E13G18    29.88F WCI  30
$$

LSZ147-162-250900-
LAKE SUPERIOR

STATION/POSITION TIME  TEMP    WIND        PRES    WAVE
                       AIR SEA DIR/SP/G            HT/PER
                 (UTC) (F)     (DEG/KT/KT) (MB)    (FT/S)
W MID LAKE BUOY  0650   35 34   60/ 16/ 17 1016.8F   2/ 5
DEVILS ISLAND    0700   36      70/ 16/ 18 1015.4F
PORT WING        0700   38      40/ 14/ 16 1013.5
SAXON HARBOR     0700   38        CALM     1013.2F
$$

LMZ867-665-643>646-250900-
LAKE MICHIGAN

STATION/POSITION TIME  TEMP    WIND        PRES    WAVE
                       AIR SEA DIR/SP/G            HT/PER
                 (UTC) (F)     (DEG/KT/KT) (MB)    (FT/S)
CHAMBERS ISLAND  0700   38      20/  4/  5 1015.9F
NORTHPORT PIER   0700   37      80/  8/ 11 1015.9F
SISTER BAY       0647   39     120/  9/ 14   N/A
KEWAUNEE LAKESHO 0700   39      50/  7/  9 1014.1F
SHEBOYGAN LAKESH 0700   40     120/ 10/ 11 1015.0F
PORT WASHINGTON  0700   40      40/ 10/ 12 1014.6
MILWAUKEE LAKESH 0700   39      40/  6/  8   N/A
KENOSHA   LAKESH 0700   40      80/ 20/ 23 1012.2F
$$

TC  - TEMPERATURE IN CELSIUS
VSB - VISIBILITY IN STATUTE MILES
WCI - WIND CHILL INDEX
HX  - HEAT INDEX




USA.gov is the U.S. government's official web portal to all federal, state and local government web resources and services.